CW2640 Weather Reports


Display with metric or nautical units.
time (UTC)temp
F
wind
direction
speed
MPH
gust
MPH
rain 1hr
in
rain 24hr
in
rain mn
in
humidity
%
barometer
mb
20260904101405 73 80 0.0 0.0 0.00 0.00 0.00 99 1015.9
20260904094405 73 80 0.0 0.0 0.00 0.00 0.00 99 1015.8
20260904091402 73 80 0.0 0.0 0.00 0.00 0.00 99 1015.7
20260904084357 74 80 0.0 0.0 0.00 0.00 0.00 99 1015.4
20260904081352 74 80 0.0 0.0 0.00 0.00 0.00 99 1015.6
20260904074351 75 80 0.0 0.0 0.00 0.00 0.00 99 1015.6
20260904071347 75 80 0.0 0.0 0.00 0.00 0.00 99 1015.6
20260904064345 75 80 0.0 0.0 0.00 0.00 0.00 99 1015.5
20260904061342 75 80 0.0 0.0 0.00 0.00 0.00 99 1015.7
20260904054339 76 80 0.0 0.0 0.00 0.00 0.00 99 1015.6
20260904051336 77 80 0.0 0.0 0.00 0.00 0.00 99 1015.9
20260904044336 77 80 0.0 0.0 0.00 0.00 0.00 99 1015.9
20260904041333 78 80 0.0 0.0 0.00 0.00 0.00 98 1016.0
20260904034328 78 80 0.0 0.0 0.00 0.00 0.00 98 1016.0
20260904031323 79 82 0.0 0.0 0.00 0.00 0.00 97 1016.0
20260904024319 79 87 0.0 0.0 0.00 0.00 0.00 96 1016.4
20260904021315 80 91 0.0 0.0 0.00 0.00 0.00 94 1016.1
20260904014310 81 95 0.0 0.0 0.00 0.00 0.00 92 1016.0
20260904011311 82 98 0.0 0.0 0.00 0.00 0.00 90 1015.7
20260904004307 84 98 0.0 0.0 0.00 0.00 0.00 87 1015.5
20260904001307 85 98 0.0 0.0 0.00 0.00 0.00 82 1015.3
20260903234306 87 99 0.0 0.0 0.00 0.00 0.00 75 1015.1
20260903231304 88 97 0.0 0.0 0.00 0.00 0.00 80 1014.8
20260903224301 89 94 0.0 0.0 0.00 0.00 0.00 78 1014.5
20260903221301 91 90 0.0 0.0 0.00 0.00 0.00 74 1014.6
20260903214301 92 86 0.0 0.0 0.00 0.00 0.00 68 1014.5
20260903211257 96 80 0.0 0.0 0.00 0.00 0.00 55 1014.3
20260903204256 98 80 0.0 0.0 0.00 0.00 0.00 51 1014.6
20260903201254 98 80 0.0 0.0 0.00 0.00 0.00 52 1015.1
20260903194252 97 80 0.0 0.0 0.00 0.00 0.00 54 1015.5
20260903191250 98 80 0.0 0.0 0.00 0.00 0.00 52 1015.9
20260903184248 98 80 0.0 0.0 0.00 0.00 0.00 52 1016.2
20260903181243 97 80 0.0 0.0 0.00 0.00 0.00 51 1016.6
20260903174238 97 80 0.0 0.0 0.00 0.00 0.00 54 1016.8
20260903171233 96 80 0.0 0.0 0.00 0.00 0.00 56 1017.4
20260903164229 96 80 0.0 0.0 0.00 0.00 0.00 59 1017.8
20260903161225 95 80 0.0 0.0 0.00 0.00 0.00 61 1018.1
20260903154222 94 80 0.0 0.0 0.00 0.00 0.00 70 1018.2
20260903151217 91 80 0.0 0.0 0.00 0.00 0.00 73 1018.0
20260903144215 90 80 0.0 0.0 0.00 0.00 0.00 74 1018.1
20260903141213 87 80 0.0 0.0 0.00 0.00 0.00 81 1017.9
20260903134212 82 80 0.0 0.0 0.00 0.00 0.00 89 1018.5
20260903131212 78 80 0.0 0.0 0.00 0.00 0.00 98 1018.3
20260903124208 75 80 0.0 0.0 0.00 0.00 0.00 99 1018.2
20260903121206 74 80 0.0 0.0 0.00 0.00 0.00 99 1018.0
20260903114201 73 80 0.0 0.0 0.00 0.00 0.00 99 1017.7
20260903111202 73 80 0.0 0.0 0.00 0.00 0.00 99 1017.5
20260903104201 73 80 0.0 0.0 0.00 0.00 0.00 99 1017.4